Satellite: ORSTED
Catalog number: 25635
Epoch time:      103027.92095220
Element set:     817 
Inclination:       96.4482 deg
RA of node:        19.3384 deg
Eccentricity:    0.0146612
Arg of perigee:    38.1753 deg
Mean anomaly:     322.9721 deg
Mean motion:   14.44794486 rev/day
Decay rate:    8.0899E-006 rev/day^2
Epoch rev:           20681
Checksum:              327

Satellite: SUNSAT
Catalog number: 25636
Epoch time:      103027.94323747
Element set:     739 
Inclination:       96.4516 deg
RA of node:        18.0574 deg
Eccentricity:    0.0150495
Arg of perigee:    44.2645 deg
Mean anomaly:     317.0472 deg
Mean motion:   14.42930798 rev/day
Decay rate:    3.8399E-006 rev/day^2
Epoch rev:           20669
Checksum:              336

Satellite: UOSAT 12
Catalog number: 25693
Epoch time:      103028.34845222
Element set:     652 
Inclination:       64.5600 deg
RA of node:        75.7348 deg
Eccentricity:    0.0018846
Arg of perigee:   317.7835 deg
Mean anomaly:      42.1815 deg
Mean motion:   14.76362775 rev/day
Decay rate:    2.7099E-006 rev/day^2
Epoch rev:           20312
Checksum:              318

Satellite: FENGYUN 1C
Catalog number: 25730
Epoch time:      103028.39073676
Element set:     753 
Inclination:       98.6357 deg
RA of node:        53.5862 deg
Eccentricity:    0.0015261
Arg of perigee:    64.4858 deg
Mean anomaly:     295.7891 deg
Mean motion:   14.11731695 rev/day
Decay rate:    3.8999E-007 rev/day^2
Epoch rev:           19164
Checksum:              357

Satellite: ASTRA 1H
Catalog number: 25785
Epoch time:      103023.00000000
Element set:     369 
Inclination:        0.0122 deg
RA of node:       319.8851 deg
Eccentricity:    0.0002995
Arg of perigee:    65.1991 deg
Mean anomaly:     116.0174 deg
Mean motion:    1.00273184 rev/day
Decay rate:    1.2299E-006 rev/day^2
Epoch rev:            1323
Checksum:              243

Satellite: TERRA
Catalog number: 25994
Epoch time:      103028.29998050
Element set:     644 
Inclination:       98.2029 deg
RA of node:       104.8487 deg
Eccentricity:    0.0001082
Arg of perigee:    67.9471 deg
Mean anomaly:     292.1842 deg
Mean motion:   14.57106090 rev/day
Decay rate:    4.1500E-006 rev/day^2
Epoch rev:           16557
Checksum:              315

Satellite: JAWSAT
Catalog number: 26061
Epoch time:      103028.21559067
Element set:     751 
Inclination:      100.2109 deg
RA of node:        81.3188 deg
Eccentricity:    0.0034839
Arg of perigee:   340.5776 deg
Mean anomaly:      19.4073 deg
Mean motion:   14.37799776 rev/day
Decay rate:    5.2800E-006 rev/day^2
Epoch rev:           15746
Checksum:              411

Satellite: OPAL
Catalog number: 26063
Epoch time:      103028.15703831
Element set:     708 
Inclination:      100.2158 deg
RA of node:        78.8491 deg
Eccentricity:    0.0037231
Arg of perigee:   347.5601 deg
Mean anomaly:      12.4651 deg
0Mean motion:   14.35472165 rev/day
Decay rate:    1.3699E-006 rev/day^2
Epoch rev:           15731
Checksum:              285

Satellite: ASUSAT
Catalog number: 26065
Epoch time:      103028.39311738
Element set:     719 
Inclination:      100.2156 deg
RA of node:        79.2730 deg
Eccentricity:    0.0037223
Arg of perigee:   348.2775 deg
Mean anomaly:      11.7534 deg
Mean motion:   14.35499162 rev/day
Decay rate:    1.7099E-006 rev/day^2
Epoch rev:           15734
Checksum:              403

Satellite: GOES 11
Catalog number: 26352
Epoch time:      103025.39923521
Element set:     993 
Inclination:        0.0843 deg
RA of node:       109.5107 deg
Eccentricity:    0.0004488
Arg of perigee:   167.9898 deg
Mean anomaly:     237.7936 deg
Mean motion:    1.00262988 rev/day
Decay rate:   -3.6000E-007 rev/day^2
Epoch rev:             999
Checksum:              322

Satellite: EUTELSAT W4
Catalog number: 26369
Epoch time:      103027.82381367
Element set:     347 
Inclination:        0.0483 deg
RA of node:        43.9257 deg
Eccentricity:    0.0006599
Arg of perigee:   239.5452 deg
Mean anomaly:     175.8942 deg
Mean motion:    1.00275910 rev/day
Decay rate:    1.5299E-006 rev/day^2
Epoch rev:             983
Checksum:              427

Satellite: FENGYUN 2B
Catalog number: 26382
Epoch time:      103027.27959218
Element set:     776 
Inclination:        0.6198 deg
RA of node:       287.0511 deg
Eccentricity:    0.0000458
Arg of perigee:   123.7991 deg
Mean anomaly:     279.9726 deg
Mean motion:    1.00259722 rev/day
Decay rate:   -3.2600E-006 rev/day^2
Epoch rev:             948
Checksum:              314

Satellite: EUTELSAT W1
Catalog number: 26487
Epoch time:      103026.88523360
Element set:     348 
Inclination:        0.0153 deg
RA of node:       287.3566 deg
Eccentricity:    0.0003967
Arg of perigee:   302.4083 deg
Mean anomaly:     224.6414 deg
Mean motion:    1.00270824 rev/day
Decay rate:    6.7000E-007 rev/day^2
Epoch rev:             879
Checksum:              280

Satellite: ASTRA 2B
Catalog number: 26494
Epoch time:      103023.00000000
Element set:     252 
Inclination:        0.0178 deg
RA of node:       354.5658 deg
Eccentricity:    0.0005000
Arg of perigee:   302.8402 deg
Mean anomaly:     212.7100 deg
Mean motion:    1.00276704 rev/day
Decay rate:    1.5399E-006 rev/day^2
Epoch rev:             865
Checksum:              221

Satellite: NOAA 16
Catalog number: 26536
Epoch time:      103027.82602835
Element set:     184 
Inclination:       98.8992 deg
RA of node:       336.2742 deg
Eccentricity:    0.0010708
Arg of perigee:    11.6721 deg
Mean anomaly:     348.4670 deg
Mean motion:   14.11893203 rev/day
Decay rate:    4.7300E-006 rev/day^2
Epoch rev:           12108
Checksum:              298

Satellite: SAUDISAT 1A
Catalog number: 26545
Epoch time:      103027.77244225
Element set:     406 
Inclination:       64.5584 deg
RA of node:        98.9118 deg
Eccentricity:    0.0053503
Arg of perigee:   242.3237 deg
Mean anomaly:     117.2453 deg
Mean motion:   14.78921898 rev/day
Decay rate:    1.1760E-005 rev/day^2
Epoch rev:           12600
Checksum:              303

Satellite: UNISAT
Catalog number: 26547
Epoch time:      103027.76984630
Element set:     426 
Inclination:       64.5570 deg
RA of node:       101.2372 deg
Eccentricity:    0.0060735
Arg of perigee:   244.7003 deg
Mean anomaly:     114.7813 deg
Mean motion:   14.79649592 rev/day
Decay rate:    2.1440E-005 rev/day^2
Epoch rev:           12596
Checksum:              304

Satellite: TIUNGSAT 1
Catalog number: 26548
Epoch time:      103027.62597707
Element set:     408 
Inclination:       64.5573 deg
RA of node:        92.4944 deg
Eccentricity:    0.0046759
Arg of perigee:   241.3950 deg
Mean anomaly:     118.2443 deg
Mean motion:   14.81193114 rev/day
Decay rate:    1.4809E-005 rev/day^2
Epoch rev:           12612
Checksum:              314

Satellite: SAUDISAT 1B
Catalog number: 26549
Epoch time:      103027.65753509
Element set:     678 
Inclination:       64.5568 deg
RA of node:       103.2660 deg
Eccentricity:    0.0057823
Arg of perigee:   242.7748 deg
Mean anomaly:     116.7451 deg
Mean motion:   14.77862697 rev/day
Decay rate:    1.3779E-005 rev/day^2
Epoch rev:           12590
Checksum:              350

Satellite: AMSAT OSCAR 40
Catalog number: 26609
Epoch time:      103018.40123252
Element set:     305 
Inclination:        7.9708 deg
RA of node:        69.8773 deg
Eccentricity:    0.7935358
Arg of perigee:   134.4243 deg
Mean anomaly:     325.7472 deg
Mean motion:    1.25596623 rev/day
Decay rate:   -1.1000E-007 rev/day^2
Epoch rev:            1019
Checksum:              372

Satellite: GOES 12
Catalog number: 26871
Epoch time:      103027.44413944
Element set:     792 
Inclination:        0.3818 deg
RA of node:       276.9016 deg
Eccentricity:    0.0004300
Arg of perigee:   347.2883 deg
Mean anomaly:     280.2513 deg
Mean motion:    1.00364071 rev/day
Decay rate:   -1.2499E-006 rev/day^2
Epoch rev:             561
Checksum:              279

Satellite: PCSAT
Catalog number: 26931
Epoch time:      103027.96998269
Element set:     406 
Inclination:       67.0483 deg
RA of node:       311.2181 deg
Eccentricity:    0.0005205
Arg of perigee:   261.8139 deg
Mean anomaly:      98.2370 deg
Mean motion:   14.29103748 rev/day
Decay rate:    1.9300E-006 rev/day^2
Epoch rev:            6926
Checksum:              414

Satellite: SAPPHIRE
Catalog number: 26932
Epoch time:      103028.23065427
Element set:     382 
Inclination:       67.0570 deg
RA of node:       310.2560 deg
Eccentricity:    0.0005731
Arg of perigee:   241.1894 deg
Mean anomaly:     118.8631 deg
Mean motion:   14.29286237 rev/day
Decay rate:    1.2799E-006 rev/day^2
Epoch rev:            6932
Checksum:              406

Satellite: ENVISAT
Catalog number: 27386
Epoch time:      103028.37742393
Element set:     887 
Inclination:       98.5458 deg
RA of node:        97.2330 deg
Eccentricity:    0.0000891
Arg of perigee:    92.4821 deg
Mean anomaly:     267.6464 deg
Mean motion:   14.32249148 rev/day
Decay rate:    1.6400E-006 rev/day^2
Epoch rev:            4771
Checksum:              326

Satellite: IDEFIX/ARIANE 
Catalog number: 27422
Epoch time:      103028.23117407
Element set:     219 
Inclination:       98.6986 deg
RA of node:       107.5285 deg
Eccentricity:    0.0012151
Arg of perigee:   209.0395 deg
Mean anomaly:     151.0111 deg
Mean motion:   14.27958131 rev/day
Decay rate:    2.3400E-006 rev/day^2
Epoch rev:            3841
Checksum:              275

